Location: Moydans
(44.3997°N, 5.5038°E)
Time: 16:03:51
(UTC+02:00)

Nauka - Pass Details

Date: 23 September 2021
Orbit: 417 x 423 km, 51.6° (Epoch: 26 October)

Event Time Altitude Azimuth Distance (km) Brightness Sun altitude
Rises 20:04:16 0° 261° (W) 2,355 ? -6.3°
Reaches altitude 10° 20:06:27 10° 270° (W) 1,494 ? -6.7°
Maximum altitude 20:09:37 37° 340° (NNW) 664 ? -7.3°
Drops below altitude 10° 20:12:47 10° 50° (NE) 1,502 ? -7.9°
Enters shadow 20:13:53 - 55° (NE) 1,928 ? -8.0°
